Tracking 21076 objects as of 7-Aug-2020
HD Live streaming from Space Station
objects crossing your sky now

METEOR 2-5 DEB

Track METEOR 2-5 DEB now!
10-day predictions


NORAD ID: 36898
Int'l Code: 1979-095AP
Perigee: 494.0 km
Apogee: 503.1 km
Inclination: 81.2 °
Period: 94.4 minutes
Semi major axis: 6869 km
RCS: 0.0124 m2 (small)
Launch date: October 31, 1979
Source: Commonwealth of Independent States (former USSR) (CIS)
Launch site: PLESETSK MISSILE AND SPACE COMPLEX (PKMTR)

Note: This is SATELLITE DEBRIS
aabbcc
Your satellite tracking list
Your tracking list is empty




NASA's NSSDC Master Catalog

Two Line Element Set (TLE):
1 36898U 79095AP  20218.32852423  .00020798  00000-0  83585-3 0  9994
2 36898  81.1726 217.5401 0006593  92.7056 267.4932 15.24797638890588
Source of the keplerian elements: AFSPC